TimeEST,TemperatureF,Dew PointF,Humidity,Sea Level PressureIn,VisibilityMPH,Wind Direction,Wind SpeedMPH,Gust SpeedMPH,PrecipitationIn,Events,Conditions,WindDirDegrees,DateUTC
12:56 AM,26.1,18.0,71,30.19,10.0,West,3.5,-,N/A,,Clear,270,2012-11-06 05:56:00
1:56 AM,25.0,18.0,75,30.20,10.0,Calm,Calm,-,N/A,,Clear,0,2012-11-06 06:56:00
2:56 AM,24.1,18.0,77,30.20,10.0,Calm,Calm,-,N/A,,Clear,0,2012-11-06 07:56:00
3:56 AM,21.9,17.1,82,30.21,10.0,Calm,Calm,-,N/A,,Clear,0,2012-11-06 08:56:00
4:56 AM,21.9,19.0,89,30.22,10.0,Calm,Calm,-,N/A,,Clear,0,2012-11-06 09:56:00
5:56 AM,21.0,17.1,85,30.22,10.0,Calm,Calm,-,N/A,,Clear,0,2012-11-06 10:56:00
6:56 AM,21.0,18.0,88,30.25,10.0,Calm,Calm,-,N/A,,Clear,0,2012-11-06 11:56:00
7:56 AM,28.9,23.0,78,30.27,10.0,Calm,Calm,-,N/A,,Clear,0,2012-11-06 12:56:00
8:56 AM,34.0,18.0,52,30.27,10.0,NNW,6.9,-,N/A,,Clear,330,2012-11-06 13:56:00
9:56 AM,37.4,15.8,41,30.23,10.0,North,6.9,-,N/A,,Clear,350,2012-11-06 14:56:00
10:56 AM,37.0,15.1,41,30.27,10.0,Calm,Calm,-,N/A,,Clear,0,2012-11-06 15:56:00
11:56 AM,39.0,15.1,38,30.25,10.0,NNW,4.6,-,N/A,,Clear,340,2012-11-06 16:56:00
12:56 PM,41.0,16.0,36,30.24,10.0,Calm,Calm,-,N/A,,Clear,0,2012-11-06 17:56:00
1:56 PM,41.0,16.0,36,30.23,10.0,ESE,3.5,-,N/A,,Clear,120,2012-11-06 18:56:00
2:56 PM,42.1,12.9,31,30.23,10.0,Calm,Calm,-,N/A,,Clear,0,2012-11-06 19:56:00
3:56 PM,39.9,12.0,32,30.22,10.0,Calm,Calm,-,N/A,,Clear,0,2012-11-06 20:56:00
4:56 PM,35.6,15.8,44,30.18,10.0,Calm,Calm,-,N/A,,Clear,0,2012-11-06 21:56:00
5:56 PM,30.9,16.0,54,30.24,10.0,Calm,Calm,-,N/A,,Clear,0,2012-11-06 22:56:00
6:56 PM,28.9,17.1,61,30.25,10.0,Calm,Calm,-,N/A,,Clear,0,2012-11-06 23:56:00
7:56 PM,26.1,18.0,71,30.25,10.0,Calm,Calm,-,N/A,,Clear,0,2012-11-07 00:56:00
8:56 PM,27.0,19.0,72,30.26,10.0,Calm,Calm,-,N/A,,Clear,0,2012-11-07 01:56:00
9:56 PM,24.1,19.0,81,30.25,10.0,Calm,Calm,-,N/A,,Clear,0,2012-11-07 02:56:00
10:56 PM,25.0,19.0,78,30.22,10.0,Calm,Calm,-,N/A,,Clear,0,2012-11-07 03:56:00
11:56 PM,24.1,19.9,84,30.23,10.0,Calm,Calm,-,N/A,,Clear,0,2012-11-07 04:56:00